Weather History for Fort Yukon, AK

Change the Weather History Date:

Sunday, May 10, 2009

  Actual Average Record
Temperature  
Mean Temperature 42 °F -  
Max Temperature 48 °F 49 °F 64 °F (1999)
Min Temperature 35 °F 29 °F 24 °F (2013)
Degree Days  
Heating Degree Days 24    
Moisture  
Dew Point 25 °F    
Average Humidity 54    
Maximum Humidity 70    
Minimum Humidity 34    
Precipitation  
Precipitation 0.00 in - - ()
Sea Level Pressure  
Sea Level Pressure 30.17 in    
Wind  
Wind Speed 8 mph (WNW)    
Max Wind Speed 13 mph    
Max Gust Speed 20 mph    
Visibility 10 miles    
Events      
Averages and records for this station are not official NWS values.
T = Trace of Precipitation, MM = Missing Value Source: NWS Daily Summary

Daily Weather History Graph

Daily Weather History Graph

Search for Another Location

Airport:

Trip Planner

Search our weather history database for the weather conditions in past years. The results will help you decide how hot, cold, wet, or windy it might be!

Date:

Astronomy

May. 10, 2009 Rise Set
Actual Time 4:13 AM AKDT 11:04 PM AKDT
Civil Twilight 2:09 AM AKDT 1:04 AM AKDT
Nautical Twilight Sun does not rise Sun does not rise
Astronomical Twilight Sun does not rise Sun does not rise
Moon No Moon Rise No Moon Set
Length of Visible Light 22h 55m
Length of Day
18h 50m
Full, 97% of the Moon is Illuminated
May 10
Full
May 16
Last Quarter
May 24
New
May 30
First Quarter
Jun 7
Full

Hourly Weather History & Observations

Time (AKDT) Temp. Windchill Dew Point Humidity Pressure Visibility Wind Dir Wind Speed Gust Speed Precip Events Conditions
12:16 AM 37.4 °F 32.1 °F 24.8 °F 60% 30.15 in 10.0 mi West 6.9 mph - N/A   Partly Cloudy
12:36 AM 37.4 °F 32.1 °F 24.8 °F 60% 30.15 in 10.0 mi WNW 6.9 mph - N/A   Clear
12:56 AM 37.4 °F 31.4 °F 24.8 °F 60% 30.15 in 10.0 mi WNW 8.1 mph - N/A   Mostly Cloudy
1:16 AM 37.4 °F 32.8 °F 24.8 °F 60% 30.15 in 10.0 mi West 5.8 mph - N/A   Overcast
1:36 AM 37.4 °F 32.1 °F 24.8 °F 60% 30.15 in 10.0 mi West 6.9 mph - N/A   Overcast
2:16 AM 37.4 °F 32.1 °F 24.8 °F 60% 30.15 in 10.0 mi WNW 6.9 mph - N/A   Overcast
2:36 AM 37.4 °F 32.8 °F 24.8 °F 60% 30.15 in 10.0 mi NW 5.8 mph - N/A   Scattered Clouds
2:56 AM 37.4 °F 31.4 °F 24.8 °F 60% 30.15 in 10.0 mi NNW 8.1 mph - N/A   Clear
3:16 AM 35.6 °F 29.9 °F 24.8 °F 65% 30.15 in 10.0 mi WNW 6.9 mph - N/A   Clear
3:36 AM 35.6 °F 30.7 °F 24.8 °F 65% 30.15 in 10.0 mi NNW 5.8 mph - N/A   Partly Cloudy
4:16 AM 35.6 °F 29.9 °F 24.8 °F 65% 30.16 in 10.0 mi NNW 6.9 mph - N/A   Overcast
4:36 AM 35.6 °F 28.6 °F 24.8 °F 65% 30.17 in 10.0 mi North 9.2 mph - N/A   Overcast
4:56 AM 35.6 °F 29.9 °F 26.6 °F 70% 30.17 in 10.0 mi WNW 6.9 mph - N/A   Overcast
5:16 AM 35.6 °F 29.2 °F 24.8 °F 65% 30.18 in 10.0 mi NW 8.1 mph - N/A   Overcast
5:36 AM 35.6 °F 29.9 °F 24.8 °F 65% 30.19 in 10.0 mi WNW 6.9 mph - N/A   Overcast
5:56 AM 35.6 °F 29.9 °F 26.6 °F 70% 30.19 in 10.0 mi NW 6.9 mph - N/A   Overcast
6:16 AM 35.6 °F 30.7 °F 26.6 °F 70% 30.19 in 10.0 mi NW 5.8 mph - N/A   Overcast
6:56 AM 35.6 °F 29.9 °F 26.6 °F 70% 30.19 in 10.0 mi NNW 6.9 mph - N/A   Partly Cloudy
7:16 AM 37.4 °F 32.8 °F 26.6 °F 65% 30.20 in 10.0 mi NNW 5.8 mph - N/A   Clear
7:36 AM 37.4 °F 32.1 °F 26.6 °F 65% 30.20 in 10.0 mi NW 6.9 mph - N/A   Clear
7:56 AM 39.2 °F 34.2 °F 26.6 °F 61% 30.20 in 10.0 mi NW 6.9 mph - N/A   Clear
8:16 AM 39.2 °F 33.6 °F 24.8 °F 56% 30.20 in 10.0 mi NW 8.1 mph - N/A   Clear
8:36 AM 39.2 °F 33.6 °F 26.6 °F 61% 30.20 in 10.0 mi WNW 8.1 mph - N/A   Clear
8:56 AM 41.0 °F 36.4 °F 26.6 °F 57% 30.20 in 10.0 mi WNW 6.9 mph - N/A   Mostly Cloudy
9:16 AM 41.0 °F 36.4 °F 24.8 °F 53% 30.20 in 10.0 mi WNW 6.9 mph - N/A   Overcast
9:36 AM 42.8 °F 37.5 °F 24.8 °F 49% 30.20 in 10.0 mi NW 9.2 mph - N/A   Overcast
10:16 AM 42.8 °F 37.5 °F 24.8 °F 49% 30.20 in 10.0 mi NW 9.2 mph - N/A   Scattered Clouds
10:56 AM 44.6 °F 39.2 °F 24.8 °F 46% 30.20 in 10.0 mi WNW 10.4 mph - N/A   Scattered Clouds
11:36 AM 44.6 °F 40.2 °F 23.0 °F 43% 30.20 in 10.0 mi NNW 8.1 mph - N/A   Partly Cloudy
12:56 PM 46.4 °F 41.5 °F 21.2 °F 37% 30.20 in 10.0 mi NW 10.4 mph 19.6 mph N/A   Scattered Clouds
1:16 PM 46.4 °F 40.7 °F 19.4 °F 34% 30.20 in 10.0 mi NW 12.7 mph 19.6 mph N/A   Scattered Clouds
1:36 PM 46.4 °F 40.7 °F 21.2 °F 37% 30.19 in 10.0 mi NNW 12.7 mph 18.4 mph N/A   Scattered Clouds
1:56 PM 48.2 °F - 21.2 °F 34% 30.19 in 10.0 mi West 8.1 mph - N/A   Scattered Clouds
2:16 PM 48.2 °F - 23.0 °F 37% 30.20 in 10.0 mi NW 11.5 mph 17.3 mph N/A   Clear
3:16 PM 48.2 °F - 23.0 °F 37% 30.19 in 10.0 mi West 8.1 mph 16.1 mph N/A   Scattered Clouds
3:36 PM 46.4 °F 41.9 °F 21.2 °F 37% 30.18 in 10.0 mi WNW 9.2 mph - N/A   Scattered Clouds
3:56 PM 48.2 °F - 23.0 °F 37% 30.18 in 10.0 mi WNW 10.4 mph 16.1 mph N/A   Scattered Clouds
4:16 PM 48.2 °F - 24.8 °F 40% 30.18 in 10.0 mi West 9.2 mph - N/A   Mostly Cloudy
4:56 PM 48.2 °F - 24.8 °F 40% 30.17 in 10.0 mi West 9.2 mph - N/A   Partly Cloudy
5:16 PM 48.2 °F - 24.8 °F 40% 30.16 in 10.0 mi West 10.4 mph - N/A   Partly Cloudy
5:36 PM 48.2 °F - 24.8 °F 40% 30.16 in 10.0 mi NW 8.1 mph - N/A   Partly Cloudy
6:16 PM 48.2 °F - 26.6 °F 43% 30.16 in 10.0 mi WNW 11.5 mph 16.1 mph N/A   Clear
6:36 PM 46.4 °F 41.9 °F 26.6 °F 46% 30.16 in 10.0 mi WNW 9.2 mph - N/A   Scattered Clouds
6:56 PM 46.4 °F 41.1 °F 26.6 °F 46% 30.15 in 10.0 mi NW 11.5 mph 16.1 mph N/A   Scattered Clouds
8:16 PM 44.6 °F 39.7 °F 26.6 °F 49% 30.15 in 10.0 mi West 9.2 mph - N/A   Clear
8:56 PM 42.8 °F 38.6 °F 26.6 °F 53% 30.15 in 10.0 mi WNW 6.9 mph - N/A   Partly Cloudy
9:16 PM 42.8 °F 37.5 °F 26.6 °F 53% 30.15 in 10.0 mi WSW 9.2 mph - N/A   Partly Cloudy
9:36 PM 42.8 °F 38.0 °F 26.6 °F 53% 30.15 in 10.0 mi West 8.1 mph - N/A   Mostly Cloudy
10:16 PM 41.0 °F 36.4 °F 26.6 °F 57% 30.15 in 10.0 mi West 6.9 mph - N/A   Overcast
10:56 PM 41.0 °F 35.8 °F 26.6 °F 57% 30.14 in 10.0 mi NW 8.1 mph - N/A   Overcast
11:16 PM 39.2 °F 33.0 °F 26.6 °F 61% 30.14 in 10.0 mi WNW 9.2 mph - N/A   Overcast
11:36 PM 39.2 °F 32.0 °F 26.6 °F 61% 30.14 in 10.0 mi WNW 11.5 mph 17.3 mph N/A   Overcast
11:56 PM 39.2 °F 33.0 °F 26.6 °F 61% 30.14 in 10.0 mi WNW 9.2 mph - N/A   Overcast